Location: Degersen
(52.2871°N, 9.5716°E)
Time: 23:57:15
(UTC+00:00)

Lacrosse 4 Rocket - Pass Details

Date: 20 January 2026
Orbit: 513 x 564 km, 68.0° (Epoch: 9 February)

Event Time Altitude Azimuth Distance (km) Brightness Sun altitude
Exits shadow 04:45:12 28° 180° (S) 997 2.6 -23.0°
Maximum altitude 04:46:55 49° 120° (ESE) 673 2.0 -22.7°
Drops below altitude 10° 04:50:41 10° 45° (NE) 1,751 4.4 -22.1°
Sets 04:52:53 0° 40° (NE) 2,640 5.3 -21.8°
